Date String (YYYY-MM-DD hh:mm:ss) UTC,Instrument flags,absolute air pressure of the measurement (hPa),sample flow rate (lpm),inlet stack bypass flow (lpm),air temperature of the measurement (°C),ambient temperature measured by the external sensor (°C),aerosol sample conditioner tube jacket temperature (°C),OPC LED temperature (°C),internal box temperature (°C),relative humidity of the measurement (%),span deviation,mass concentration of particles derived from Lorenz-Mie calculation of OPC scattering (μg/m³),mass concentration of particles derived from Lorenz-Mie calculation of OPC scattering (μg/m³),mass concentration of particles derived from Lorenz-Mie calculation of OPC scattering (μg/m³)
DateTimeUTC,F1_M11,P_M11,Q1_M11,Q2_M11,T1_M11,T2_M11,T3_M11,T4_M11,T5_M11,U1_M11,ZSPAN_M11,X0_M11,X2_M11,X1_M11
2023-06-16 08:00:00,SystemResetWarning,0831.4,5.00,000.00,030.4,028.8,000.0,039.1,031.9,28.9,0000.0,0007.16,0003.31,0002.66
2023-06-16 08:01:00,SystemResetWarning,0831.3,4.99,000.00,030.4,028.8,000.0,039.1,031.9,29.1,0000.0,0007.31,0003.29,0002.62
2023-06-16 08:02:00,SystemResetWarning,0831.3,5.00,000.00,030.4,028.8,000.0,039.1,031.9,29.2,0000.0,0007.39,0003.30,0002.60
2023-06-16 08:03:00,SystemResetWarning,0831.4,5.01,000.00,030.4,028.8,000.0,039.1,031.9,29.3,0000.0,0006.89,0003.30,0002.61
2023-06-16 08:04:00,SystemResetWarning,0831.4,5.01,000.00,030.4,028.8,000.0,039.1,031.9,29.4,0000.0,0006.74,0003.29,0002.61
2023-06-16 08:05:00,SystemResetWarning,0831.4,5.00,000.00,030.4,028.8,000.0,039.1,031.9,29.5,0000.0,0006.71,0003.29,0002.62
2023-06-16 08:06:00,SystemResetWarning,0831.4,5.00,000.00,030.4,028.8,000.0,039.1,031.9,29.6,0000.0,0006.54,0003.32,0002.65
2023-06-16 08:07:00,SystemResetWarning,0831.4,5.00,000.00,030.4,028.8,000.0,039.1,031.9,29.7,0000.0,0006.49,0003.32,0002.68
2023-06-16 08:08:00,SystemResetWarning,0831.3,5.00,000.00,030.4,028.8,000.0,039.1,031.9,29.8,0000.0,0006.61,0003.34,0002.72
2023-06-16 08:09:00,SystemResetWarning,0831.4,4.99,000.00,030.4,028.8,000.0,039.1,031.9,29.7,0000.0,0006.68,0003.36,0002.74
2023-06-16 08:10:00,SystemResetWarning,0831.4,5.00,000.00,030.4,028.8,000.0,039.1,031.9,29.7,0000.0,0006.70,0003.39,0002.77
2023-06-16 08:11:00,SystemResetWarning,0831.4,5.00,000.00,030.4,028.8,000.0,039.1,031.9,29.7,0000.0,0006.15,0003.36,0002.80
2023-06-16 08:12:00,SystemResetWarning,0831.4,5.00,000.00,030.4,028.8,000.0,039.1,031.9,29.8,0000.0,0005.82,0003.35,0002.83
2023-06-16 08:13:00,SystemResetWarning,0831.4,5.00,000.00,030.4,028.8,000.0,039.1,031.9,29.8,0000.0,0005.53,0003.34,0002.86
2023-06-16 08:14:00,SystemResetWarning,0831.4,5.00,000.00,030.4,028.8,000.0,039.1,031.9,29.8,0000.0,0005.58,0003.37,0002.91
2023-06-16 08:15:00,SystemResetWarning,0831.4,5.01,000.00,030.5,028.8,000.0,039.1,031.9,29.8,0000.0,0005.98,0003.44,0002.97
2023-06-16 08:16:00,SystemResetWarning,0831.3,5.00,000.00,030.4,028.8,000.0,039.1,031.9,29.8,0000.0,0006.12,0003.49,0003.03
2023-06-16 08:17:00,SystemResetWarning,0831.4,5.00,000.00,030.5,028.9,000.0,039.1,032.0,29.8,0000.0,0006.29,0003.52,0003.08
2023-06-16 08:18:00,SystemResetWarning,0831.3,5.00,000.00,030.5,028.9,000.0,039.1,032.0,29.7,0000.0,0006.40,0003.55,0003.11
2023-06-16 08:19:00,SystemResetWarning,0831.4,5.00,000.00,030.5,028.9,000.0,039.1,031.9,29.7,0000.0,0006.70,0003.57,0003.13
2023-06-16 08:20:00,SystemResetWarning,0831.4,4.99,000.00,030.5,028.9,000.0,039.1,031.9,29.6,0000.0,0006.81,0003.59,0003.15
2023-06-16 08:21:00,SystemResetWarning,0831.4,5.00,000.00,030.5,028.9,000.0,039.1,032.0,29.6,0000.0,0006.77,0003.58,0003.16
2023-06-16 08:22:00,SystemResetWarning,0831.4,5.00,000.00,030.5,028.9,000.0,039.1,032.0,29.6,0000.0,0006.90,0003.63,0003.17
2023-06-16 08:23:00,SystemResetWarning,0831.4,5.00,000.00,030.5,028.9,000.0,039.1,031.9,29.7,0000.0,0006.87,0003.64,0003.19
2023-06-16 08:24:00,SystemResetWarning,0831.4,5.00,000.00,030.5,028.9,000.0,039.1,032.0,29.7,0000.0,0007.01,0003.66,0003.19
2023-06-16 08:25:00,SystemResetWarning,0831.4,5.00,000.00,030.5,028.9,000.0,039.1,032.0,29.6,0000.0,0006.96,0003.66,0003.20
2023-06-16 08:26:00,SystemResetWarning,0831.4,5.00,000.00,030.5,028.9,000.0,039.2,032.0,29.6,0000.0,0006.85,0003.67,0003.20
2023-06-16 08:27:00,SystemResetWarning,0831.4,5.00,000.00,030.5,028.9,000.0,039.1,032.0,29.6,0000.0,0006.78,0003.65,0003.20
2023-06-16 08:28:00,SystemResetWarning,0831.4,5.00,000.00,030.6,028.9,000.0,039.1,032.0,29.6,0000.0,0006.55,0003.64,0003.20
2023-06-16 08:29:00,SystemResetWarning,0831.4,5.01,000.00,030.6,029.0,000.0,039.2,032.0,29.6,0000.0,0006.45,0003.65,0003.20
2023-06-16 08:30:00,SystemResetWarning,0831.4,5.01,000.00,030.6,028.9,000.0,039.2,032.0,29.5,0000.0,0006.13,0003.64,0003.21
2023-06-16 08:31:00,SystemResetWarning,0831.4,5.00,000.00,030.6,028.9,000.0,039.2,032.0,29.5,0000.0,0006.17,0003.63,0003.20
2023-06-16 08:32:00,SystemResetWarning,0831.4,5.00,000.00,030.6,029.0,000.0,039.2,032.0,29.3,0000.0,0006.67,0003.62,0003.20
2023-06-16 08:33:00,SystemResetWarning,0831.5,5.00,000.00,030.6,029.0,000.0,039.2,032.0,29.2,0000.0,0006.87,0003.61,0003.20
2023-06-16 08:34:00,SystemResetWarning,0831.4,5.00,000.00,030.6,029.0,000.0,039.2,032.0,28.9,0000.0,0007.31,0003.62,0003.19
2023-06-16 08:35:00,SystemResetWarning,0831.4,4.99,000.00,030.6,028.6,000.0,039.2,032.1,28.7,0000.0,0007.59,0003.60,0003.18
2023-06-16 08:36:00,SystemResetWarning,0831.3,5.00,000.00,030.6,026.2,000.0,039.1,032.0,28.6,0000.0,0007.57,0003.57,0003.16
2023-06-16 08:37:00,SystemResetWarning,0831.3,5.01,000.00,030.5,025.0,000.0,039.0,031.8,28.8,0000.0,0007.48,0003.54,0003.16
2023-06-16 08:38:00,SystemResetWarning,0831.2,5.00,000.00,030.4,025.0,000.0,039.0,031.3,29.1,0000.0,0007.51,0003.55,0003.16
2023-06-16 08:39:00,SystemResetWarning,0831.3,5.00,000.00,030.2,025.4,000.0,039.0,031.3,29.4,0000.0,0007.52,0003.56,0003.16
2023-06-16 08:40:00,SystemResetWarning,0831.2,5.00,000.00,030.2,025.8,000.0,038.9,031.3,29.7,0000.0,0007.68,0003.57,0003.17
2023-06-16 08:41:00,SystemResetWarning,0831.3,5.00,000.00,030.1,026.3,000.0,038.9,031.3,29.9,0000.0,0007.90,0003.59,0003.19
2023-06-16 08:42:00,SystemResetWarning,0831.2,5.00,000.00,030.1,026.7,000.0,038.9,031.3,30.1,0000.0,0007.85,0003.61,0003.21
2023-06-16 08:43:00,SystemResetWarning,0831.2,4.99,000.00,030.1,027.0,000.0,038.8,031.3,30.2,0000.0,0007.70,0003.65,0003.24
2023-06-16 08:44:00,SystemResetWarning,0831.2,4.99,000.00,030.1,027.3,000.0,038.8,031.4,30.2,0000.0,0007.66,0003.68,0003.27
2023-06-16 08:45:00,SystemResetWarning,0831.1,4.99,000.00,030.1,027.5,000.0,038.8,031.4,30.5,0000.0,0007.36,0003.70,0003.30
2023-06-16 08:46:00,SystemResetWarning,0831.1,5.00,000.00,030.1,027.7,000.0,038.8,031.4,30.4,0000.0,0007.28,0003.77,0003.35
2023-06-16 08:47:00,SystemResetWarning,0831.1,5.01,000.00,030.1,027.8,000.0,038.8,031.5,30.3,0000.0,0007.34,0003.80,0003.37
2023-06-16 08:48:00,SystemResetWarning,0831.1,5.00,000.00,030.1,027.9,000.0,038.7,031.5,30.2,0000.0,0007.34,0003.81,0003.39
2023-06-16 08:49:00,SystemResetWarning,0831.1,5.01,000.00,030.1,028.0,000.0,038.7,031.5,30.1,0000.0,0007.35,0003.81,0003.41
2023-06-16 08:50:00,SystemResetWarning,0831.1,5.00,000.00,030.1,028.1,000.0,038.7,031.5,29.9,0000.0,0007.41,0003.81,0003.42
2023-06-16 08:51:00,SystemResetWarning,0831.1,5.00,000.00,030.1,028.2,000.0,038.7,031.5,29.8,0000.0,0007.04,0003.82,0003.43
2023-06-16 08:52:00,SystemResetWarning,0831.1,5.00,000.00,030.1,028.2,000.0,038.7,031.5,29.8,0000.0,0007.21,0003.83,0003.43
2023-06-16 08:53:00,SystemResetWarning,0831.1,4.99,000.00,030.1,028.3,000.0,038.7,031.5,29.7,0000.0,0007.50,0003.85,0003.43
2023-06-16 08:54:00,SystemResetWarning,0831.1,4.99,000.00,030.1,028.3,000.0,038.7,031.5,29.7,0000.0,0007.58,0003.83,0003.42
2023-06-16 08:55:00,SystemResetWarning,0831.1,5.00,000.00,030.1,028.4,000.0,038.7,031.5,29.6,0000.0,0007.91,0003.82,0003.40
2023-06-16 08:56:00,SystemResetWarning,0831.2,5.00,000.00,030.1,028.4,000.0,038.7,031.5,29.6,0000.0,0007.95,0003.81,0003.39
2023-06-16 08:57:00,SystemResetWarning,0831.2,5.01,000.00,030.1,028.4,000.0,038.7,031.5,29.5,0000.0,0007.91,0003.79,0003.37
2023-06-16 08:58:00,SystemResetWarning,0831.1,5.00,000.00,030.1,028.4,000.0,038.7,031.6,29.4,0000.0,0007.88,0003.78,0003.37
2023-06-16 08:59:00,SystemResetWarning,0831.1,5.00,000.00,030.1,028.5,000.0,038.7,031.6,29.3,0000.0,0008.01,0003.82,0003.36
